Time,TemperatureF,DewpointF,PressureIn,WindDirection,WindDirectionDegrees,WindSpeedMPH,WindSpeedGustMPH,Humidity,HourlyPrecipIn,Conditions,Clouds,dailyrainin,SoftwareType,DateUTC
2013-04-06 00:12:00,33.6,25.6,30.00,SSE,157,1.1,-999.0,72,-99.99,,,0.00,Acu-Link.com,2013-04-06 05:12:00,
2013-04-06 00:27:00,33.6,26.5,30.00,East,90,5.8,-999.0,75,-99.99,,,0.00,Acu-Link.com,2013-04-06 05:27:00,
2013-04-06 00:43:00,33.8,27.1,29.98,ESE,112,5.8,-999.0,76,-99.99,,,0.00,Acu-Link.com,2013-04-06 05:43:00,
2013-04-06 00:58:00,33.8,28.3,29.99,ESE,112,5.3,-999.0,80,-99.99,,,0.00,Acu-Link.com,2013-04-06 05:58:00,
2013-04-06 01:13:00,33.8,29.2,29.99,ESE,112,3.2,-999.0,83,-99.99,,,0.00,Acu-Link.com,2013-04-06 06:13:00,
2013-04-06 01:28:00,33.8,29.2,29.97,East,90,5.8,-999.0,83,-99.99,,,0.00,Acu-Link.com,2013-04-06 06:28:00,
2013-04-06 01:59:00,33.6,28.1,29.96,ESE,112,6.8,-999.0,80,-99.99,,,0.00,Acu-Link.com,2013-04-06 06:59:00,
2013-04-06 02:29:00,33.6,30.2,29.94,ESE,112,10.4,-999.0,87,-99.99,,,0.00,Acu-Link.com,2013-04-06 07:29:00,
2013-04-06 03:15:00,34.0,33.7,29.93,East,90,7.3,-999.0,99,-99.99,,,0.00,Acu-Link.com,2013-04-06 08:15:00,
2013-04-06 03:30:00,34.0,33.7,29.92,ENE,67,6.8,-999.0,99,-99.99,,,0.00,Acu-Link.com,2013-04-06 08:30:00,
2013-04-06 03:46:00,34.0,33.7,29.91,East,90,6.8,-999.0,99,-99.99,,,0.00,Acu-Link.com,2013-04-06 08:46:00,
2013-04-06 04:16:00,34.2,33.9,29.91,East,90,4.2,-999.0,99,-99.99,,,0.00,Acu-Link.com,2013-04-06 09:16:00,
2013-04-06 05:02:00,34.7,34.4,29.89,ESE,112,7.8,-999.0,99,-99.99,,,0.00,Acu-Link.com,2013-04-06 10:02:00,
2013-04-06 05:17:00,35.1,34.8,29.89,SE,135,9.9,-999.0,99,-99.99,,,0.00,Acu-Link.com,2013-04-06 10:17:00,
2013-04-06 05:32:00,35.1,34.8,29.89,East,90,4.7,-999.0,99,-99.99,,,0.00,Acu-Link.com,2013-04-06 10:32:00,
2013-04-06 05:47:00,35.1,34.8,29.88,ESE,112,3.7,-999.0,99,-99.99,,,0.00,Acu-Link.com,2013-04-06 10:47:00,
2013-04-06 06:03:00,35.1,34.8,29.88,SE,135,4.7,-999.0,99,-99.99,,,0.00,Acu-Link.com,2013-04-06 11:03:00,
2013-04-06 06:18:00,35.1,34.8,29.87,SSE,157,8.3,-999.0,99,-99.99,,,0.00,Acu-Link.com,2013-04-06 11:18:00,
2013-04-06 06:33:00,35.2,34.9,29.85,ESE,112,4.7,-999.0,99,-99.99,,,0.00,Acu-Link.com,2013-04-06 11:33:00,
2013-04-06 06:48:00,35.8,35.5,29.84,SSE,157,7.3,-999.0,99,-99.99,,,0.00,Acu-Link.com,2013-04-06 11:48:00,
2013-04-06 07:49:00,37.8,36.0,29.81,ESE,112,8.3,-999.0,93,-99.99,,,0.00,Acu-Link.com,2013-04-06 12:49:00,
2013-04-06 08:04:00,38.8,35.0,29.81,ESE,112,6.8,-999.0,86,-99.99,,,0.00,Acu-Link.com,2013-04-06 13:04:00,
2013-04-06 08:19:00,39.6,33.6,29.79,SE,135,8.9,-999.0,79,-99.99,,,0.00,Acu-Link.com,2013-04-06 13:19:00,
2013-04-06 08:35:00,41.2,31.8,29.78,ESE,112,9.9,-999.0,69,-99.99,,,0.00,Acu-Link.com,2013-04-06 13:35:00,
2013-04-06 08:50:00,42.6,30.9,29.76,SSE,157,8.3,-999.0,63,-99.99,,,0.00,Acu-Link.com,2013-04-06 13:50:00,
2013-04-06 09:05:00,43.3,30.4,29.75,ESE,112,11.4,-999.0,60,-99.99,,,0.00,Acu-Link.com,2013-04-06 14:05:00,
2013-04-06 09:20:00,44.2,30.8,29.74,SSE,157,8.9,-999.0,59,-99.99,,,0.00,Acu-Link.com,2013-04-06 14:20:00,
2013-04-06 09:36:00,44.4,31.0,29.73,SSE,157,11.4,-999.0,59,-99.99,,,0.00,Acu-Link.com,2013-04-06 14:36:00,
2013-04-06 10:06:00,44.6,31.6,29.72,SSE,157,5.8,-999.0,60,-99.99,,,0.00,Acu-Link.com,2013-04-06 15:06:00,
2013-04-06 10:21:00,46.2,32.2,29.72,SSE,157,5.8,-999.0,58,-99.99,,,0.00,Acu-Link.com,2013-04-06 15:21:00,
2013-04-06 10:36:00,46.8,34.9,29.71,ESE,112,3.2,-999.0,63,-99.99,,,0.00,Acu-Link.com,2013-04-06 15:36:00,
2013-04-06 10:52:00,48.2,34.1,29.71,South,180,6.3,-999.0,58,-99.99,,,0.00,Acu-Link.com,2013-04-06 15:52:00,
2013-04-06 11:07:00,49.5,33.6,29.70,SSE,157,7.8,-999.0,54,-99.99,,,0.00,Acu-Link.com,2013-04-06 16:07:00,
2013-04-06 11:22:00,50.7,34.7,29.68,SE,135,6.3,-999.0,54,-99.99,,,0.00,Acu-Link.com,2013-04-06 16:22:00,
2013-04-06 11:37:00,52.0,35.9,29.67,SSE,157,10.4,-999.0,54,-99.99,,,0.00,Acu-Link.com,2013-04-06 16:37:00,
2013-04-06 11:52:00,52.9,36.7,29.65,SSW,202,8.9,-999.0,54,-99.99,,,0.00,Acu-Link.com,2013-04-06 16:52:00,
2013-04-06 12:08:00,54.3,36.6,29.63,SE,135,14.0,-999.0,51,-99.99,,,0.00,Acu-Link.com,2013-04-06 17:08:00,
2013-04-06 12:23:00,56.1,37.7,29.61,SSE,157,6.3,-999.0,50,-99.99,,,0.00,Acu-Link.com,2013-04-06 17:23:00,
2013-04-06 12:38:00,56.8,37.3,29.59,SSE,157,8.9,-999.0,48,-99.99,,,0.00,Acu-Link.com,2013-04-06 17:38:00,
2013-04-06 13:09:00,59.4,38.6,29.58,SW,225,9.9,-999.0,46,-99.99,,,0.00,Acu-Link.com,2013-04-06 18:09:00,
2013-04-06 13:24:00,60.3,39.4,29.55,South,180,8.9,-999.0,46,-99.99,,,0.00,Acu-Link.com,2013-04-06 18:24:00,
2013-04-06 13:39:00,58.3,38.2,29.54,South,180,14.0,-999.0,47,-99.99,,,0.00,Acu-Link.com,2013-04-06 18:39:00,
2013-04-06 13:54:00,57.9,38.3,29.54,SSE,157,14.0,-999.0,48,-99.99,,,0.00,Acu-Link.com,2013-04-06 18:54:00,
2013-04-06 14:09:00,58.1,39.0,29.54,SE,135,8.9,-999.0,49,-99.99,,,0.00,Acu-Link.com,2013-04-06 19:09:00,
2013-04-06 14:55:00,61.5,41.1,29.51,SE,135,10.4,-999.0,47,-99.99,,,0.00,Acu-Link.com,2013-04-06 19:55:00,
2013-04-06 15:10:00,62.6,42.1,29.49,SSE,157,10.9,-999.0,47,-99.99,,,0.00,Acu-Link.com,2013-04-06 20:10:00,
2013-04-06 15:25:00,61.7,41.8,29.49,South,180,14.5,-999.0,48,-99.99,,,0.00,Acu-Link.com,2013-04-06 20:25:00,
2013-04-06 15:41:00,57.6,48.3,29.50,South,180,7.3,-999.0,71,-99.99,,,0.00,Acu-Link.com,2013-04-06 20:41:00,
2013-04-06 16:11:00,58.6,50.0,29.46,SSE,157,5.3,-999.0,73,-99.99,,,0.01,Acu-Link.com,2013-04-06 21:11:00,
2013-04-06 16:42:00,61.0,47.0,29.44,SW,225,11.4,-999.0,60,-99.99,,,0.01,Acu-Link.com,2013-04-06 21:42:00,
2013-04-06 16:57:00,61.7,45.8,29.44,SSE,157,7.8,-999.0,56,-99.99,,,0.01,Acu-Link.com,2013-04-06 21:57:00,
2013-04-06 17:12:00,63.3,46.9,29.43,ESE,112,11.4,-999.0,55,-99.99,,,0.01,Acu-Link.com,2013-04-06 22:12:00,
2013-04-06 17:27:00,63.7,45.7,29.43,SSW,202,7.3,-999.0,52,-99.99,,,0.01,Acu-Link.com,2013-04-06 22:27:00,
2013-04-06 17:42:00,63.0,45.1,29.43,SSW,202,15.0,-999.0,52,-99.99,,,0.01,Acu-Link.com,2013-04-06 22:42:00,
2013-04-06 17:58:00,61.7,44.4,29.42,SSW,202,6.8,-999.0,53,-99.99,,,0.01,Acu-Link.com,2013-04-06 22:58:00,
2013-04-06 18:13:00,61.9,44.1,29.41,SSW,202,11.9,-999.0,52,-99.99,,,0.01,Acu-Link.com,2013-04-06 23:13:00,
2013-04-06 18:28:00,61.7,43.9,29.41,SW,225,8.3,-999.0,52,-99.99,,,0.01,Acu-Link.com,2013-04-06 23:28:00,
2013-04-06 18:43:00,60.8,43.6,29.41,SSE,157,7.3,-999.0,53,-99.99,,,0.01,Acu-Link.com,2013-04-06 23:43:00,
2013-04-06 19:14:00,61.2,44.4,29.42,SSW,202,10.9,-999.0,54,-99.99,,,0.01,Acu-Link.com,2013-04-07 00:14:00,
2013-04-06 19:29:00,58.6,54.1,29.43,WSW,247,17.1,-999.0,85,-99.99,,,0.01,Acu-Link.com,2013-04-07 00:29:00,
2013-04-06 19:44:00,55.0,54.7,29.44,SW,225,7.3,-999.0,99,-99.99,,,0.01,Acu-Link.com,2013-04-07 00:44:00,
2013-04-06 20:00:00,53.6,53.3,29.44,SSW,202,6.3,-999.0,99,-99.99,,,0.03,Acu-Link.com,2013-04-07 01:00:00,
2013-04-06 20:15:00,52.9,52.6,29.43,SW,225,5.3,-999.0,99,-99.99,,,0.06,Acu-Link.com,2013-04-07 01:15:00,
2013-04-06 20:30:00,52.9,52.6,29.42,SSE,157,4.2,-999.0,99,-99.99,,,0.09,Acu-Link.com,2013-04-07 01:30:00,
2013-04-06 20:45:00,52.5,52.2,29.41,SSW,202,5.3,-999.0,99,-99.99,,,0.10,Acu-Link.com,2013-04-07 01:45:00,
2013-04-06 21:00:00,52.7,52.4,29.41,South,180,5.8,-999.0,99,-99.99,,,0.10,Acu-Link.com,2013-04-07 02:00:00,
2013-04-06 21:31:00,53.6,53.3,29.41,SSW,202,5.8,-999.0,99,-99.99,,,0.10,Acu-Link.com,2013-04-07 02:31:00,
2013-04-06 22:01:00,54.0,53.7,29.39,SSW,202,10.9,-999.0,99,-99.99,,,0.10,Acu-Link.com,2013-04-07 03:01:00,
2013-04-06 22:17:00,54.0,53.7,29.39,SSW,202,8.9,-999.0,99,-99.99,,,0.10,Acu-Link.com,2013-04-07 03:17:00,
2013-04-06 22:32:00,53.8,53.5,29.39,SW,225,7.3,-999.0,99,-99.99,,,0.10,Acu-Link.com,2013-04-07 03:32:00,
2013-04-06 22:47:00,54.3,54.0,29.38,SSW,202,10.4,-999.0,99,-99.99,,,0.10,Acu-Link.com,2013-04-07 03:47:00,
2013-04-06 23:02:00,53.8,53.5,29.39,SW,225,6.3,-999.0,99,-99.99,,,0.10,Acu-Link.com,2013-04-07 04:02:00,
2013-04-06 23:17:00,52.5,52.2,29.38,SW,225,6.8,-999.0,99,-99.99,,,0.13,Acu-Link.com,2013-04-07 04:17:00,
2013-04-06 23:33:00,52.0,51.7,29.38,SSW,202,7.8,-999.0,99,-99.99,,,0.17,Acu-Link.com,2013-04-07 04:33:00,
2013-04-06 23:48:00,52.0,51.7,29.38,SW,225,4.2,-999.0,99,-99.99,,,0.18,Acu-Link.com,2013-04-07 04:48:00,